contact:dominique.lefevre@mio.osupytheas.fr, maurice.libes@osupytheas.fr, didier.mallarino@osupytheas.fr
Project:EMSO http://www.emso-fr.org/EMSO-France
Depth: 2436.0 m
Title:EMSO Ligure Ouest : Data MII capteur AQUADOPP
Date,Latitude,Longitude,X_East,Y_North,Z_Up,Amplitude_X,Amplitude_Y,Amplitude_Z,Batterie,SoundSpeed,Heading,Pitch,Roll,Pressure,TIS,Speed,Direction
, degrees North, degrees East, m.s-1, m.s-1,m.s-1, 1, 1, 1, Volt, m.s-1, degree, degree, degree, dbar, degree_C, m.s-1, degree
2021-11-07T00:04:03,42.805,6.029,0.037,0.009,0.024,99.0,101.0,100.0,13.4,1505.2,331.2,-0.7,1.8,2470.68,13.28,0.038,76.3
2021-11-07T00:07:03,42.805,6.029,-0.006,-0.007,-0.003,99.0,100.0,99.0,13.4,1505.2,329.5,-0.7,1.8,2470.701,13.28,0.009,220.6
2021-11-07T00:10:03,42.805,6.029,0.039,0.014,0.0,99.0,100.0,99.0,13.4,1505.2,329.7,-0.8,1.8,2470.723,13.28,0.041,70.3
2021-11-07T00:13:03,42.805,6.029,0.035,-0.004,0.009,100.0,101.0,99.0,13.4,1505.2,326.9,-0.8,1.8,2470.689,13.28,0.035,96.5
2021-11-07T00:16:03,42.805,6.029,0.02,0.011,0.008,100.0,101.0,100.0,13.4,1505.2,327.4,-0.8,1.8,2470.66,13.28,0.022,61.2
2021-11-07T00:19:03,42.805,6.029,0.026,-0.004,0.001,99.0,100.0,100.0,13.3,1505.2,329.6,-0.8,1.8,2470.698,13.28,0.026,98.7
2021-11-07T00:22:03,42.805,6.029,0.025,-0.023,-0.031,99.0,100.0,100.0,13.3,1505.2,329.4,-0.7,1.8,2470.645,13.28,0.033,132.6
2021-11-07T00:25:03,42.805,6.029,0.03,0.003,0.014,98.0,103.0,100.0,13.4,1505.2,325.6,-0.8,1.8,2470.683,13.28,0.03,84.3
2021-11-07T00:28:03,42.805,6.029,0.038,0.002,-0.008,100.0,100.0,99.0,13.3,1505.2,327.1,-0.8,1.8,2470.681,13.28,0.038,87.0
2021-11-07T00:31:03,42.805,6.029,0.02,-0.01,-0.014,102.0,99.0,100.0,13.3,1505.2,327.5,-0.8,1.8,2470.666,13.28,0.022,116.6
2021-11-07T00:34:03,42.805,6.029,0.027,-0.014,-0.001,100.0,101.0,100.0,13.3,1505.2,326.6,-0.7,1.8,2470.653,13.28,0.03,117.4
2021-11-07T00:37:03,42.805,6.029,0.01,0.014,-0.015,98.0,103.0,101.0,13.4,1505.2,329.5,-0.8,1.8,2470.688,13.28,0.017,35.5
2021-11-07T00:40:03,42.805,6.029,0.029,-0.009,-0.001,98.0,101.0,100.0,13.4,1505.2,330.4,-0.7,1.8,2470.606,13.28,0.03,107.2
2021-11-07T00:43:03,42.805,6.029,0.017,-0.014,-0.017,100.0,103.0,99.0,13.4,1505.2,331.0,-0.8,1.8,2470.647,13.28,0.022,129.5
2021-11-07T00:46:03,42.805,6.029,0.043,0.007,0.027,99.0,103.0,99.0,13.3,1505.2,327.3,-0.8,1.8,2470.656,13.28,0.043,80.8
2021-11-07T00:49:03,42.805,6.029,0.023,0.007,0.027,99.0,100.0,100.0,13.4,1505.2,327.8,-0.8,1.8,2470.586,13.28,0.024,73.1
2021-11-07T00:52:03,42.805,6.029,0.016,-0.013,-0.035,100.0,101.0,100.0,13.4,1505.2,329.9,-0.8,1.9,2470.603,13.28,0.02,129.1
2021-11-07T00:55:03,42.805,6.029,0.031,0.004,-0.011,100.0,101.0,100.0,13.4,1505.2,327.2,-0.7,1.9,2470.626,13.28,0.031,82.7
2021-11-07T00:58:03,42.805,6.029,0.049,-0.018,-0.003,99.0,100.0,101.0,13.4,1505.2,328.6,-0.7,1.8,2470.648,13.28,0.052,110.2
2021-11-07T01:04:03,42.805,6.029,-0.005,0.035,0.005,101.0,102.0,102.0,13.4,1505.2,328.1,-0.7,1.8,2470.701,13.28,0.035,351.9
2021-11-07T01:07:03,42.805,6.029,0.04,-0.015,-0.016,101.0,101.0,101.0,13.3,1505.2,329.6,-0.7,1.8,2470.676,13.28,0.042,110.6
2021-11-07T01:10:03,42.805,6.029,0.017,0.0,0.005,100.0,100.0,100.0,13.4,1505.2,330.7,-0.8,1.8,2470.62,13.28,0.017,90.0
2021-11-07T01:13:03,42.805,6.029,0.037,-0.021,0.013,98.0,101.0,100.0,13.4,1505.2,326.3,-0.8,1.8,2470.632,13.28,0.042,119.6
2021-11-07T01:16:03,42.805,6.029,0.032,-0.012,-0.007,100.0,100.0,99.0,13.4,1505.2,328.0,-0.8,1.8,2470.607,13.28,0.034,110.6
2021-11-07T01:19:03,42.805,6.029,0.018,-0.009,0.022,99.0,101.0,100.0,13.4,1505.2,330.9,-0.7,1.8,2470.656,13.28,0.02,116.6
2021-11-07T01:22:03,42.805,6.029,0.014,0.011,0.015,100.0,100.0,100.0,13.3,1505.2,331.2,-0.7,1.8,2470.631,13.28,0.017,51.8
2021-11-07T01:25:03,42.805,6.029,0.034,-0.001,0.029,100.0,101.0,100.0,13.3,1505.2,325.9,-0.8,1.8,2470.617,13.28,0.034,91.7
2021-11-07T01:28:03,42.805,6.029,0.027,0.003,0.0,99.0,100.0,100.0,13.4,1505.2,329.4,-0.7,1.8,2470.588,13.28,0.027,83.7
2021-11-07T01:31:03,42.805,6.029,0.003,0.022,-0.019,99.0,101.0,100.0,13.4,1505.2,329.5,-0.7,1.8,2470.608,13.28,0.022,7.8
2021-11-07T01:34:03,42.805,6.029,0.005,0.0,-0.001,100.0,100.0,99.0,13.4,1505.2,327.0,-0.7,1.8,2470.568,13.28,0.005,90.0
2021-11-07T01:37:03,42.805,6.029,0.006,-0.009,-0.003,100.0,100.0,100.0,13.4,1505.2,325.2,-0.7,1.8,2470.628,13.28,0.01,146.3
2021-11-07T01:40:03,42.805,6.029,0.047,-0.003,0.003,100.0,102.0,100.0,13.4,1505.2,329.6,-0.7,1.8,2470.592,13.28,0.047,93.6
2021-11-07T01:43:03,42.805,6.029,0.015,-0.008,0.015,100.0,100.0,100.0,13.3,1505.2,329.2,-0.7,1.8,2470.564,13.28,0.017,118.1
2021-11-07T01:46:03,42.805,6.029,0.016,-0.007,0.009,101.0,100.0,100.0,13.4,1505.2,328.0,-0.7,1.8,2470.608,13.28,0.017,113.6
2021-11-07T01:49:03,42.805,6.029,0.016,-0.014,-0.023,100.0,99.0,100.0,13.4,1505.2,329.2,-0.7,1.8,2470.546,13.28,0.021,131.2
2021-11-07T01:52:03,42.805,6.029,0.043,-0.027,-0.015,100.0,100.0,100.0,13.4,1505.2,325.8,-0.8,1.8,2470.568,13.28,0.05,122.1
2021-11-07T01:55:03,42.805,6.029,0.042,0.0,-0.002,100.0,101.0,99.0,13.3,1505.2,329.8,-0.7,1.8,2470.628,13.28,0.042,90.0
2021-11-07T01:58:03,42.805,6.029,0.03,-0.001,0.025,99.0,100.0,101.0,13.4,1505.2,327.9,-0.7,1.8,2470.605,13.28,0.03,91.9
2021-11-07T02:04:03,42.805,6.029,0.049,-0.008,0.019,100.0,100.0,99.0,13.4,1505.2,331.0,-0.7,1.8,2470.611,13.28,0.049,99.3
2021-11-07T02:07:03,42.805,6.029,0.02,-0.002,-0.002,100.0,101.0,100.0,13.4,1505.2,329.8,-0.7,1.8,2470.633,13.28,0.02,95.7
2021-11-07T02:10:03,42.805,6.029,0.014,-0.007,-0.002,99.0,101.0,100.0,13.4,1505.2,329.7,-0.8,1.8,2470.599,13.28,0.015,116.6
2021-11-07T02:13:03,42.805,6.029,0.032,-0.008,-0.01,98.0,102.0,101.0,13.3,1505.2,327.2,-0.8,1.8,2470.576,13.28,0.032,104.0
2021-11-07T02:16:03,42.805,6.029,-0.001,-0.025,-0.031,100.0,101.0,100.0,13.4,1505.2,326.6,-0.7,1.8,2470.595,13.28,0.025,182.3
2021-11-07T02:19:03,42.805,6.029,0.037,-0.029,-0.007,100.0,100.0,100.0,13.3,1505.2,327.9,-0.8,1.8,2470.574,13.28,0.047,128.1
2021-11-07T02:22:03,42.805,6.029,0.018,-0.027,-0.018,101.0,101.0,99.0,13.4,1505.2,327.3,-0.8,1.8,2470.596,13.28,0.032,146.3
2021-11-07T02:25:03,42.805,6.029,0.018,-0.011,-0.033,100.0,101.0,100.0,13.4,1505.2,329.1,-0.8,1.8,2470.593,13.28,0.021,121.4
2021-11-07T02:28:03,42.805,6.029,0.032,-0.011,0.005,101.0,100.0,100.0,13.4,1505.2,328.9,-0.7,1.8,2470.601,13.28,0.033,109.0
2021-11-07T02:31:03,42.805,6.029,0.012,-0.015,-0.011,101.0,101.0,98.0,13.3,1505.2,328.6,-0.7,1.8,2470.555,13.28,0.019,141.3
2021-11-07T02:34:03,42.805,6.029,0.006,0.0,0.015,99.0,100.0,101.0,13.4,1505.2,330.8,-0.8,1.8,2470.537,13.28,0.006,90.0
2021-11-07T02:37:03,42.805,6.029,0.056,-0.024,-0.01,100.0,99.0,101.0,13.4,1505.2,328.2,-0.7,1.8,2470.6,13.28,0.06,113.2
2021-11-07T02:40:03,42.805,6.029,0.017,-0.025,-0.014,101.0,99.0,100.0,13.4,1505.2,329.8,-0.8,1.8,2470.559,13.28,0.03,145.8
2021-11-07T02:43:03,42.805,6.029,0.02,-0.01,0.005,100.0,102.0,100.0,13.4,1505.2,326.7,-0.8,1.8,2470.59,13.28,0.022,116.6
2021-11-07T02:46:03,42.805,6.029,0.024,-0.005,0.0,99.0,101.0,100.0,13.4,1505.2,329.5,-0.8,1.8,2470.596,13.28,0.024,101.8
2021-11-07T02:49:03,42.805,6.029,0.036,-0.015,-0.005,100.0,101.0,100.0,13.4,1505.2,327.1,-0.8,1.8,2470.571,13.28,0.039,112.6
2021-11-07T02:52:03,42.805,6.029,0.029,-0.02,-0.006,99.0,101.0,100.0,13.4,1505.2,329.1,-0.8,1.8,2470.565,13.28,0.035,124.6
2021-11-07T02:55:03,42.805,6.029,0.019,-0.035,-0.021,100.0,100.0,100.0,13.4,1505.2,331.5,-0.7,1.8,2470.554,13.28,0.039,151.5
2021-11-07T02:58:03,42.805,6.029,0.026,-0.014,0.005,100.0,101.0,100.0,13.4,1505.2,327.0,-0.8,1.8,2470.573,13.28,0.029,118.3
2021-11-07T03:04:03,42.805,6.029,0.027,-0.019,-0.006,101.0,100.0,99.0,13.4,1505.2,327.3,-0.8,1.8,2470.579,13.28,0.033,125.1
2021-11-07T03:07:03,42.805,6.029,0.023,-0.008,0.019,100.0,101.0,99.0,13.4,1505.2,328.9,-0.8,1.8,2470.642,13.28,0.024,109.2
2021-11-07T03:10:03,42.805,6.029,0.034,-0.032,-0.045,100.0,101.0,100.0,13.4,1505.2,329.6,-0.7,1.8,2470.613,13.28,0.046,133.3
2021-11-07T03:13:03,42.805,6.029,0.019,0.0,0.006,100.0,101.0,99.0,13.3,1505.2,329.7,-0.8,1.8,2470.64,13.28,0.019,90.0
2021-11-07T03:16:03,42.805,6.029,0.02,-0.015,0.006,101.0,98.0,100.0,13.4,1505.2,328.9,-0.8,1.8,2470.535,13.28,0.025,126.9
2021-11-07T03:19:03,42.805,6.029,0.017,-0.02,-0.002,99.0,101.0,100.0,13.4,1505.2,329.2,-0.7,1.9,2470.56,13.28,0.026,139.6
2021-11-07T03:22:03,42.805,6.029,0.009,-0.006,-0.025,100.0,100.0,100.0,13.3,1505.2,325.6,-0.8,1.8,2470.593,13.28,0.01,123.7
2021-11-07T03:25:03,42.805,6.029,0.007,-0.003,-0.01,99.0,100.0,99.0,13.4,1505.2,327.9,-0.7,1.8,2470.57,13.28,0.007,113.2
2021-11-07T03:28:03,42.805,6.029,0.024,-0.018,-0.006,99.0,99.0,100.0,13.4,1505.2,327.4,-0.7,1.8,2470.598,13.28,0.03,126.9
2021-11-07T03:31:03,42.805,6.029,0.036,-0.016,-0.002,99.0,100.0,100.0,13.4,1505.2,327.6,-0.7,1.8,2470.6,13.28,0.039,114.0
2021-11-07T03:34:03,42.805,6.029,-0.012,0.016,0.016,98.0,100.0,100.0,13.4,1505.2,329.0,-0.8,1.8,2470.565,13.28,0.02,323.1
2021-11-07T03:37:03,42.805,6.029,0.007,-0.004,0.006,98.0,100.0,100.0,13.4,1505.2,328.9,-0.7,1.8,2470.558,13.28,0.008,119.7
2021-11-07T03:40:03,42.805,6.029,0.023,-0.013,0.012,101.0,99.0,99.0,13.3,1505.2,327.2,-0.7,1.8,2470.568,13.28,0.026,119.5
2021-11-07T03:43:03,42.805,6.029,0.013,-0.03,-0.047,99.0,100.0,99.0,13.4,1505.2,327.5,-0.7,1.8,2470.539,13.28,0.032,156.6
2021-11-07T03:46:03,42.805,6.029,0.031,-0.015,-0.001,99.0,99.0,101.0,13.4,1505.2,330.8,-0.7,1.9,2470.555,13.28,0.034,115.8
2021-11-07T03:49:03,42.805,6.029,0.029,-0.001,0.008,99.0,100.0,100.0,13.4,1505.2,325.4,-0.8,1.8,2470.601,13.28,0.029,92.0
2021-11-07T03:52:03,42.805,6.029,0.035,-0.011,-0.004,100.0,101.0,100.0,13.4,1505.2,326.5,-0.8,1.8,2470.587,13.28,0.036,107.4
2021-11-07T03:55:03,42.805,6.029,0.006,0.01,0.031,100.0,100.0,100.0,13.4,1505.2,329.9,-0.7,1.8,2470.583,13.28,0.011,31.0
2021-11-07T03:58:03,42.805,6.029,-0.016,-0.017,-0.037,99.0,100.0,100.0,13.4,1505.2,327.0,-0.8,1.8,2470.586,13.28,0.023,223.3
2021-11-07T04:04:03,42.805,6.029,0.034,-0.004,-0.006,98.0,101.0,101.0,13.4,1505.2,326.0,-0.8,1.8,2470.615,13.28,0.034,96.7
2021-11-07T04:07:03,42.805,6.029,0.024,-0.009,-0.017,100.0,99.0,99.0,13.3,1505.2,327.3,-0.7,1.8,2470.619,13.28,0.025,110.6
2021-11-07T04:10:03,42.805,6.029,0.048,-0.031,-0.025,101.0,100.0,99.0,13.4,1505.2,328.0,-0.7,1.9,2470.584,13.28,0.057,122.9
2021-11-07T04:13:03,42.805,6.029,-0.001,-0.008,-0.021,99.0,99.0,100.0,13.4,1505.2,330.4,-0.7,1.8,2470.637,13.28,0.008,187.1
2021-11-07T04:16:03,42.805,6.029,0.029,-0.007,-0.031,101.0,99.0,99.0,13.3,1505.2,331.4,-0.8,1.8,2470.581,13.28,0.029,103.6
2021-11-07T04:19:03,42.805,6.029,0.042,-0.014,0.015,99.0,100.0,100.0,13.4,1505.2,328.8,-0.8,1.8,2470.601,13.28,0.044,108.4
2021-11-07T04:22:03,42.805,6.029,0.026,-0.007,-0.013,99.0,101.0,100.0,13.4,1505.2,329.5,-0.7,1.8,2470.62,13.28,0.026,105.1
2021-11-07T04:25:03,42.805,6.029,0.011,-0.016,-0.007,101.0,100.0,100.0,13.4,1505.2,329.0,-0.8,1.8,2470.6,13.28,0.019,145.5
2021-11-07T04:28:03,42.805,6.029,0.026,-0.019,-0.019,100.0,101.0,99.0,13.4,1505.2,327.4,-0.7,1.8,2470.6,13.28,0.032,126.2
2021-11-07T04:31:03,42.805,6.029,0.013,-0.011,-0.014,98.0,100.0,101.0,13.4,1505.2,328.2,-0.8,1.9,2470.625,13.28,0.017,130.2
2021-11-07T04:34:03,42.805,6.029,0.018,0.004,0.02,98.0,101.0,100.0,13.4,1505.2,329.5,-0.8,1.8,2470.57,13.28,0.018,77.5
2021-11-07T04:37:03,42.805,6.029,0.042,0.013,0.027,100.0,99.0,100.0,13.3,1505.2,331.3,-0.8,1.8,2470.649,13.28,0.043,72.8
2021-11-07T04:40:03,42.805,6.029,0.012,-0.003,-0.021,99.0,101.0,99.0,13.3,1505.2,327.5,-0.7,1.8,2470.585,13.28,0.012,104.0
2021-11-07T04:43:03,42.805,6.029,0.011,-0.002,0.01,100.0,101.0,99.0,13.4,1505.2,326.5,-0.7,1.8,2470.61,13.28,0.011,100.3
2021-11-07T04:46:03,42.805,6.029,0.024,-0.008,0.024,101.0,102.0,99.0,13.3,1505.2,328.9,-0.8,1.8,2470.613,13.28,0.025,108.4
2021-11-07T04:49:03,42.805,6.029,0.032,-0.002,0.02,100.0,101.0,99.0,13.4,1505.2,332.0,-0.7,1.9,2470.63,13.28,0.032,93.6
2021-11-07T04:52:03,42.805,6.029,0.035,0.006,0.016,101.0,100.0,100.0,13.3,1505.2,328.1,-0.7,1.9,2470.626,13.28,0.035,80.3
2021-11-07T04:55:03,42.805,6.029,0.055,-0.007,0.025,99.0,100.0,100.0,13.3,1505.2,327.1,-0.8,1.8,2470.632,13.28,0.055,97.3
2021-11-07T04:58:03,42.805,6.029,0.024,-0.018,0.005,99.0,101.0,100.0,13.3,1505.2,327.1,-0.8,1.8,2470.645,13.28,0.03,126.9
2021-11-07T05:04:03,42.805,6.029,0.037,0.02,0.035,100.0,99.0,100.0,13.4,1505.2,329.2,-0.8,1.8,2470.702,13.28,0.042,61.6
2021-11-07T05:07:03,42.805,6.029,0.01,-0.001,0.006,101.0,100.0,99.0,13.4,1505.2,327.2,-0.7,1.8,2470.677,13.28,0.01,95.7
2021-11-07T05:10:03,42.805,6.029,0.007,-0.003,-0.008,99.0,101.0,100.0,13.4,1505.2,330.1,-0.8,1.9,2470.681,13.28,0.007,113.2
2021-11-07T05:13:03,42.805,6.029,0.042,-0.037,-0.045,100.0,101.0,100.0,13.3,1505.2,328.5,-0.7,1.8,2470.675,13.28,0.055,131.4
2021-11-07T05:16:03,42.805,6.029,0.047,-0.012,0.015,99.0,101.0,102.0,13.4,1505.2,326.5,-0.7,1.8,2470.698,13.28,0.048,104.3
2021-11-07T05:19:03,42.805,6.029,0.019,-0.026,-0.018,101.0,100.0,98.0,13.3,1505.2,325.6,-0.8,1.8,2470.683,13.28,0.032,143.8
2021-11-07T05:22:03,42.805,6.029,0.019,-0.041,-0.066,100.0,100.0,99.0,13.3,1505.2,328.9,-0.7,1.9,2470.713,13.28,0.045,155.1
2021-11-07T05:25:03,42.805,6.029,0.005,0.001,-0.003,99.0,100.0,100.0,13.3,1505.2,325.9,-0.8,1.8,2470.674,13.28,0.005,78.7
2021-11-07T05:28:03,42.805,6.029,0.024,0.004,0.042,100.0,101.0,99.0,13.3,1505.2,327.9,-0.8,1.8,2470.697,13.28,0.024,80.5
2021-11-07T05:31:03,42.805,6.029,0.004,-0.003,0.001,100.0,100.0,100.0,13.3,1505.2,326.6,-0.7,1.8,2470.688,13.28,0.005,126.9
2021-11-07T05:34:03,42.805,6.029,0.019,-0.007,-0.013,100.0,101.0,99.0,13.4,1505.2,329.6,-0.8,1.8,2470.641,13.28,0.02,110.2
2021-11-07T05:37:03,42.805,6.029,0.014,0.002,0.007,100.0,101.0,99.0,13.4,1505.2,324.9,-0.8,1.8,2470.69,13.28,0.014,81.9
2021-11-07T05:40:03,42.805,6.029,0.029,-0.001,0.008,100.0,100.0,100.0,13.4,1505.2,329.4,-0.8,1.8,2470.694,13.28,0.029,92.0
2021-11-07T05:43:03,42.805,6.029,0.03,-0.013,-0.049,100.0,100.0,99.0,13.3,1505.2,326.3,-0.7,1.8,2470.671,13.28,0.032,113.4
2021-11-07T05:46:03,42.805,6.029,0.018,-0.024,-0.02,99.0,101.0,100.0,13.4,1505.2,328.9,-0.8,1.8,2470.701,13.28,0.03,143.1
2021-11-07T05:49:03,42.805,6.029,0.004,-0.002,-0.005,99.0,99.0,101.0,13.3,1505.2,329.8,-0.7,1.8,2470.674,13.28,0.004,116.6
2021-11-07T05:52:03,42.805,6.029,0.011,-0.021,-0.021,101.0,100.0,100.0,13.4,1505.2,328.8,-0.7,1.8,2470.739,13.28,0.023,152.4
2021-11-07T05:55:03,42.805,6.029,0.029,-0.001,-0.022,101.0,98.0,99.0,13.4,1505.2,326.4,-0.7,1.8,2470.691,13.28,0.029,92.0
2021-11-07T05:58:03,42.805,6.029,0.028,-0.016,-0.013,99.0,100.0,99.0,13.3,1505.2,325.6,-0.8,1.8,2470.733,13.28,0.032,119.7
2021-11-07T06:04:04,42.805,6.029,0.032,-0.021,-0.009,99.0,100.0,100.0,13.3,1505.2,330.7,-0.8,1.8,2470.728,13.28,0.038,123.3
2021-11-07T06:07:03,42.805,6.029,0.031,-0.022,-0.008,100.0,100.0,99.0,13.3,1505.2,327.5,-0.7,1.8,2470.741,13.28,0.038,125.4
2021-11-07T06:10:03,42.805,6.029,0.033,0.011,-0.003,100.0,100.0,100.0,13.4,1505.2,325.7,-0.8,1.8,2470.753,13.28,0.034,71.6
2021-11-07T06:13:03,42.805,6.029,0.034,-0.012,0.007,99.0,102.0,99.0,13.3,1505.2,332.2,-0.8,1.8,2470.8,13.28,0.036,109.4
2021-11-07T06:16:03,42.805,6.029,0.017,0.003,-0.012,100.0,100.0,100.0,13.3,1505.2,329.5,-0.7,1.8,2470.763,13.28,0.017,80.0
2021-11-07T06:19:03,42.805,6.029,0.0,0.0,0.025,100.0,101.0,101.0,13.4,1505.2,327.8,-0.7,1.8,2470.755,13.28,0.0,0.0
2021-11-07T06:22:03,42.805,6.029,0.038,-0.012,0.013,101.0,101.0,99.0,13.4,1505.2,328.7,-0.7,1.8,2470.759,13.28,0.039,107.5
2021-11-07T06:25:03,42.805,6.029,0.036,-0.002,0.019,100.0,100.0,100.0,13.4,1505.2,326.5,-0.7,1.8,2470.737,13.28,0.036,93.2
2021-11-07T06:28:03,42.805,6.029,0.013,-0.006,0.002,100.0,101.0,99.0,13.4,1505.2,325.7,-0.8,1.8,2470.791,13.28,0.014,114.8
2021-11-07T06:31:03,42.805,6.029,0.01,-0.004,0.016,100.0,101.0,100.0,13.4,1505.2,328.2,-0.7,1.8,2470.794,13.28,0.01,111.8
2021-11-07T06:34:03,42.805,6.029,0.016,-0.001,-0.016,99.0,100.0,100.0,13.4,1505.2,331.2,-0.8,1.8,2470.767,13.28,0.016,93.6
2021-11-07T06:37:03,42.805,6.029,0.009,0.005,-0.029,98.0,101.0,101.0,13.4,1505.2,330.2,-0.7,1.8,2470.743,13.28,0.01,60.9
2021-11-07T06:40:03,42.805,6.029,0.042,-0.019,0.014,100.0,100.0,99.0,13.3,1505.2,329.5,-0.7,1.8,2470.822,13.28,0.046,114.3
2021-11-07T06:43:03,42.805,6.029,0.031,-0.011,0.017,101.0,101.0,99.0,13.4,1505.2,328.7,-0.7,1.8,2470.767,13.28,0.032,109.5
2021-11-07T06:46:03,42.805,6.029,0.032,-0.027,-0.032,100.0,102.0,99.0,13.4,1505.2,330.3,-0.7,1.8,2470.755,13.28,0.041,130.2
2021-11-07T06:49:03,42.805,6.029,0.03,-0.007,0.025,101.0,100.0,99.0,13.4,1505.2,329.5,-0.8,1.8,2470.762,13.28,0.03,103.1
2021-11-07T06:52:03,42.805,6.029,0.029,-0.02,-0.002,101.0,100.0,100.0,13.3,1505.2,327.9,-0.8,1.8,2470.769,13.28,0.035,124.6
2021-11-07T06:55:03,42.805,6.029,0.045,0.006,0.022,99.0,103.0,99.0,13.3,1505.2,327.9,-0.8,1.8,2470.761,13.28,0.045,82.4
2021-11-07T06:58:03,42.805,6.029,0.051,-0.026,-0.017,100.0,100.0,99.0,13.3,1505.2,329.5,-0.7,1.8,2470.754,13.28,0.057,117.0
2021-11-07T07:04:03,42.805,6.029,0.007,0.004,-0.003,99.0,100.0,100.0,13.4,1505.2,330.5,-0.8,1.8,2470.804,13.28,0.008,60.3
2021-11-07T07:07:03,42.805,6.029,0.025,0.014,0.049,99.0,101.0,99.0,13.4,1505.2,328.4,-0.7,1.8,2470.813,13.28,0.028,60.7
2021-11-07T07:10:03,42.805,6.029,0.043,-0.036,-0.013,99.0,101.0,100.0,13.4,1505.2,331.0,-0.8,1.8,2470.826,13.28,0.056,129.9
2021-11-07T07:13:03,42.805,6.029,0.025,-0.014,-0.012,100.0,102.0,100.0,13.3,1505.2,325.7,-0.8,1.8,2470.808,13.28,0.028,119.3
2021-11-07T07:16:03,42.805,6.029,0.029,-0.001,0.0,99.0,101.0,101.0,13.3,1505.2,328.0,-0.7,1.8,2470.83,13.28,0.029,92.0
2021-11-07T07:19:03,42.805,6.029,0.022,-0.01,0.01,100.0,102.0,99.0,13.4,1505.2,329.8,-0.7,1.8,2470.832,13.28,0.024,114.4
2021-11-07T07:22:03,42.805,6.029,0.026,0.001,0.0,101.0,100.0,99.0,13.4,1505.2,326.8,-0.7,1.8,2470.811,13.28,0.026,87.8
2021-11-07T07:25:03,42.805,6.029,0.021,-0.006,-0.006,100.0,102.0,100.0,13.4,1505.2,330.6,-0.7,1.8,2470.809,13.28,0.021,105.9
2021-11-07T07:28:03,42.805,6.029,-0.002,0.0,-0.006,100.0,100.0,99.0,13.4,1505.2,328.5,-0.7,1.8,2470.854,13.28,0.002,270.0
2021-11-07T07:31:03,42.805,6.029,0.019,0.007,-0.009,99.0,101.0,100.0,13.4,1505.2,329.9,-0.8,1.8,2470.855,13.28,0.02,69.8
2021-11-07T07:34:03,42.805,6.029,0.021,0.0,0.016,100.0,101.0,100.0,13.4,1505.2,330.5,-0.7,1.8,2470.826,13.28,0.021,90.0
2021-11-07T07:37:03,42.805,6.029,0.022,0.031,0.019,99.0,102.0,100.0,13.4,1505.2,327.1,-0.8,1.8,2470.809,13.28,0.038,35.4
2021-11-07T07:40:03,42.805,6.029,0.018,-0.028,-0.037,100.0,100.0,100.0,13.3,1505.2,328.7,-0.8,1.8,2470.774,13.28,0.033,147.3
2021-11-07T07:43:03,42.805,6.029,0.03,-0.021,-0.009,100.0,100.0,100.0,13.4,1505.2,326.2,-0.7,1.9,2470.807,13.28,0.036,125.0
2021-11-07T07:46:03,42.805,6.029,0.038,-0.009,0.018,100.0,100.0,100.0,13.4,1505.2,327.3,-0.7,1.8,2470.822,13.28,0.039,103.3
2021-11-07T07:49:03,42.805,6.029,0.062,-0.028,0.0,100.0,101.0,99.0,13.4,1505.2,331.2,-0.8,1.8,2470.847,13.28,0.068,114.3
2021-11-07T07:52:03,42.805,6.029,0.009,-0.026,-0.02,102.0,99.0,100.0,13.4,1505.2,329.8,-0.7,1.8,2470.801,13.28,0.027,160.9
2021-11-07T07:55:03,42.805,6.029,0.037,-0.009,-0.008,100.0,100.0,100.0,13.4,1505.2,329.6,-0.7,1.8,2470.757,13.28,0.038,103.7
2021-11-07T07:58:03,42.805,6.029,0.022,0.002,0.019,100.0,101.0,99.0,13.4,1505.2,330.3,-0.8,1.8,2470.894,13.28,0.022,84.8
2021-11-07T08:04:03,42.805,6.029,0.031,0.009,0.018,101.0,100.0,100.0,13.4,1505.2,331.6,-0.8,1.8,2470.874,13.28,0.032,73.8
2021-11-07T08:07:03,42.805,6.029,0.023,0.012,0.021,100.0,102.0,100.0,13.4,1505.2,326.8,-0.8,1.8,2470.826,13.28,0.025,62.4
2021-11-07T08:10:03,42.805,6.029,0.007,0.01,0.017,101.0,100.0,101.0,13.3,1505.2,327.8,-0.8,1.8,2470.831,13.28,0.012,35.0
2021-11-07T08:13:03,42.805,6.029,0.03,0.002,0.018,100.0,101.0,100.0,13.3,1505.2,329.2,-0.8,1.8,2470.856,13.28,0.03,86.2
2021-11-07T08:16:03,42.805,6.029,0.019,0.003,-0.003,100.0,101.0,100.0,13.4,1505.2,331.9,-0.8,1.8,2470.824,13.28,0.019,81.0
2021-11-07T08:19:03,42.805,6.029,0.011,-0.017,-0.026,101.0,100.0,100.0,13.3,1505.2,328.7,-0.7,1.8,2470.853,13.28,0.02,147.1
2021-11-07T08:22:03,42.805,6.029,0.022,0.0,0.002,100.0,101.0,99.0,13.4,1505.2,326.1,-0.7,1.8,2470.872,13.28,0.022,90.0
2021-11-07T08:25:03,42.805,6.029,0.004,-0.016,-0.008,100.0,101.0,100.0,13.4,1505.2,328.7,-0.7,1.8,2470.816,13.28,0.016,166.0
2021-11-07T08:28:03,42.805,6.029,0.063,-0.021,-0.003,101.0,100.0,100.0,13.4,1505.2,330.0,-0.8,1.8,2470.907,13.28,0.066,108.4
2021-11-07T08:31:03,42.805,6.029,0.015,0.0,-0.019,100.0,101.0,100.0,13.3,1505.2,328.4,-0.8,1.8,2470.844,13.28,0.015,90.0
2021-11-07T08:34:03,42.805,6.029,0.012,-0.022,-0.022,101.0,99.0,99.0,13.4,1505.2,326.7,-0.7,1.9,2470.831,13.28,0.025,151.4
2021-11-07T08:37:03,42.805,6.029,0.029,-0.01,-0.013,99.0,100.0,100.0,13.4,1505.2,331.3,-0.8,1.8,2470.876,13.28,0.03,109.0
2021-11-07T08:40:03,42.805,6.029,0.028,-0.003,0.029,100.0,100.0,100.0,13.3,1505.2,328.3,-0.7,1.8,2470.887,13.28,0.028,96.1
2021-11-07T08:43:03,42.805,6.029,0.048,-0.016,0.002,99.0,101.0,100.0,13.3,1505.2,330.7,-0.7,1.8,2470.822,13.28,0.05,108.4
2021-11-07T08:46:03,42.805,6.029,0.046,-0.019,-0.033,100.0,100.0,100.0,13.4,1505.2,331.2,-0.8,1.8,2470.807,13.28,0.049,112.4
2021-11-07T08:49:03,42.805,6.029,0.012,-0.018,-0.017,100.0,101.0,100.0,13.3,1505.2,330.6,-0.8,1.8,2470.845,13.28,0.021,146.3
2021-11-07T08:52:03,42.805,6.029,0.018,-0.015,0.004,100.0,101.0,100.0,13.4,1505.2,324.9,-0.8,1.9,2470.823,13.28,0.023,129.8
2021-11-07T08:55:03,42.805,6.029,0.014,0.003,0.009,99.0,102.0,101.0,13.4,1505.2,328.1,-0.7,1.8,2470.839,13.28,0.014,77.9
2021-11-07T08:58:03,42.805,6.029,0.034,-0.002,0.004,99.0,99.0,101.0,13.4,1505.2,326.9,-0.7,1.9,2470.832,13.28,0.034,93.4
2021-11-07T09:04:03,42.805,6.029,0.027,-0.014,-0.032,99.0,99.0,101.0,13.4,1505.2,327.0,-0.8,1.8,2470.893,13.28,0.03,117.4
2021-11-07T09:07:03,42.805,6.029,0.0,0.003,-0.018,100.0,100.0,99.0,13.4,1505.2,329.6,-0.8,1.8,2470.887,13.28,0.003,0.0
2021-11-07T09:10:03,42.805,6.029,0.013,-0.008,-0.026,100.0,101.0,99.0,13.3,1505.2,327.7,-0.8,1.8,2470.872,13.28,0.015,121.6
2021-11-07T09:13:03,42.805,6.029,0.029,-0.015,-0.008,99.0,99.0,100.0,13.4,1505.2,331.4,-0.8,1.8,2470.877,13.28,0.032,117.4
2021-11-07T09:16:03,42.805,6.029,0.031,0.009,0.013,101.0,99.0,99.0,13.3,1505.2,326.3,-0.7,1.8,2470.805,13.28,0.032,73.8
2021-11-07T09:19:03,42.805,6.029,0.033,-0.028,-0.043,100.0,103.0,99.0,13.4,1505.2,326.3,-0.8,1.8,2470.861,13.28,0.043,130.3
2021-11-07T09:22:03,42.805,6.029,0.003,0.0,-0.035,99.0,100.0,100.0,13.4,1505.2,331.3,-0.7,1.8,2470.85,13.28,0.003,90.0
2021-11-07T09:25:03,42.805,6.029,0.032,-0.003,0.021,99.0,100.0,100.0,13.4,1505.2,326.5,-0.8,1.8,2470.894,13.28,0.032,95.4
2021-11-07T09:28:03,42.805,6.029,0.044,-0.02,0.028,99.0,100.0,99.0,13.4,1505.2,328.9,-0.8,1.8,2470.829,13.28,0.048,114.4
2021-11-07T09:31:03,42.805,6.029,0.022,-0.004,0.007,99.0,101.0,100.0,13.3,1505.2,330.3,-0.8,1.8,2470.855,13.28,0.022,100.3
2021-11-07T09:34:03,42.805,6.029,0.049,-0.027,0.015,100.0,100.0,100.0,13.4,1505.2,325.5,-0.7,1.8,2470.821,13.28,0.055,118.9
2021-11-07T09:37:03,42.805,6.029,0.046,-0.019,0.002,99.0,101.0,99.0,13.4,1505.2,328.9,-0.8,1.8,2470.811,13.28,0.049,112.4
2021-11-07T09:40:03,42.805,6.029,0.016,-0.028,-0.052,98.0,101.0,100.0,13.3,1505.2,331.8,-0.8,1.9,2470.84,13.28,0.032,150.3
2021-11-07T09:43:03,42.805,6.029,0.007,-0.019,0.01,99.0,100.0,100.0,13.4,1505.2,330.7,-0.8,1.8,2470.815,13.28,0.02,159.8
2021-11-07T09:46:03,42.805,6.029,0.031,-0.021,0.009,97.0,100.0,101.0,13.4,1505.2,328.5,-0.7,1.8,2470.826,13.28,0.037,124.1
2021-11-07T09:49:03,42.805,6.029,0.017,-0.01,0.009,99.0,102.0,99.0,13.4,1505.2,331.4,-0.7,1.8,2470.834,13.28,0.019,120.5
2021-11-07T09:52:03,42.805,6.029,0.048,-0.013,0.002,100.0,100.0,100.0,13.4,1505.2,327.3,-0.8,1.8,2470.807,13.28,0.049,105.2
2021-11-07T09:55:03,42.805,6.029,0.062,-0.027,-0.002,100.0,98.0,99.0,13.3,1505.2,326.7,-0.7,1.8,2470.798,13.28,0.067,113.5
2021-11-07T09:58:03,42.805,6.029,0.019,-0.015,-0.033,99.0,101.0,99.0,13.4,1505.2,331.1,-0.8,1.8,2470.857,13.28,0.024,128.3
2021-11-07T10:04:03,42.805,6.029,0.028,-0.005,-0.007,100.0,101.0,99.0,13.3,1505.2,330.5,-0.8,1.8,2470.877,13.28,0.028,100.1